COSMOS 397 DEB *

Satellite information

Favourite Embed

Satellite Type and Status

DEBRISIN ORBIT

Key statistics

Satellite COSMOS 397 DEB * at a glance.

Uptime

19858

Days in orbit

Revolutions

≈ 15.4

Per day

Orbit

LEO

Low Earth Orbit

Inclination

66.5

Latest

Satellite identification and parameters

Extended collection of information and parameters for COSMOS 397 DEB *.

Object identification

Identified? True

Debris? True

Object name: COSMOS 397 DEB *

International designator: 1971-015CA

Object number (NORAD): 5597

Object ID (CCSDS): 5597

Country: COMMONWEALTH OF INDEPENDENT STATES (CIS)

Current information (Y/N): Y

RCS size: SMALL

Orbital parameters

Period: 93.583 minutes

Inclination: 66.5407 deg

SMA: 6827.968 km

Apoapsis: 457.949 km

Periapsis: 441.717 km

RAAN: 151.0273 deg

Eccentricy: 0.0011886

Argument of periapsis: 267.9334 deg

Mean anomaly: 92.0456 deg

Mean motion: 15.38741078 rev/day

Mean motion (dot): 0.00136458 rev/day2

B* drag term: 0.003481 1/REarth

Two-line elements (TLE)

Creation date: July 8, 2025, 10:46 p.m.

Reference frame: TEME

Reference center: EARTH

Epoch: July 7, 2025, 11:48 p.m. UTC

TLE line 0: 0 COSMOS 397 DEB *

TLE line 1: 1 5597U 71015CA 25188.99182518 .00136458 00000-0 34810-2 0 9992

TLE line 2: 2 5597 66.5407 151.0273 0011886 267.9334 92.0456 15.38741078823163

Live tracking on map

Real-time ground track for satellite COSMOS 397 DEB *.

In-orbit conjunctions

A list of the most updated potential collisions computed for object COSMOS 397 DEB *.

Target Orbit TCA Probability of collision Miss distance Type
SL-16 R/B SSO 2024-06-24 06:26:08 0.0001772897 118.0 (m) ROCKET BODY

Associated space launch

The I2P satellites were the first soviet coorbital ASAT system.

COSMOS 397 DEB * was lifted into orbit during the mission ‘Tsiklon-2 | I2P 6’, on board a Tsiklon-2 space rocket.

The launch took place on Feb. 25, 1971, 11:11 a.m. from 90/20.

For more information about the launch, click the button.

Launch to space Tsiklon-2 | I2P 6
Tsiklon-2 | I2P 6

Agency: N/A

Status: Launch Successful

Launch date: Feb. 25, 1971, 11:11 a.m. UTC

Rocket: Tsiklon-2

Launch pad: 90/20

Location: Baikonur Cosmodrome, Republic of Kazakhstan

...

Latest news about this satellite

There are no fresh news available about this satellite. Check back as we update our databases every day.


Newsletter sign-up

Weekly statistics, charts and insights to help you stay on top of the space industry.